Showing default

FLOCK 4BE 29, 60509

Orbit data source: Space-Track

FLOCK 4BE 29, 60509 is a payload satellite owned by Planet (US) in SSO that was launched on Fri, 16 Aug 2024 UTC via an FALCON 9 launch vehicle from the Air Force Western Test Range (AFWTR). Payload-class satellites include a variety of spacecraft equipped with specific instruments for various scientific and technological missions. These include communications satellites like Starlink; space stations such as the ISS; scientific satellites like the Hubble; Earth observation satellites from companies like Planet Labs, Umbra, and HawkEye 360; GPS; miniature CubeSats for education and research; and military/defense satellites.

Loading next visibility...
Identifier
60509, 2024-149AT
Orbit
SSO
Country
Flag of USUS
Related business
Manufacturer
Planet
Mission
Operational Commercial Imaging
Bus & Motor
CUBESAT 3U, Unknown motor
Mass
5.7 kg wet, 5.7 kg dry
Launch date (UTC)
2024-08-16 (1 year ago)
Launch vehicle
FALCON 9
Launch site
Air Force Western Test Range (AFWTR)
Object type
Payload
Rocket body
Debris
Shape & HBR
Box + 2 Pan, 1.0 m
Radar Cross Section
0.072 m², Medium (>0.1 m² and < 1m²)

Expand to show TLE details & history
Last TLE update: 10 hours ago

TLE from 10 hours ago
0 FLOCK 4BE 29
1 60509U 24149AT  25345.19181187  .00028259  00000-0  80177-3 0  9997
2 60509  97.3977  64.1573 0002156 242.1368 117.9658 15.36182523 73474
Epoch: 2025-12-11T04:36Z
TLE epoch observation values (Epoch: 2025-12-11T04:36:12.545Z)
Latitude
0.00001°
Longitude
-85.04629°
Altitude
461.214 km
Speed
7.636 km/s
True Right ascension
04h 16m 37s
True Declination
0° 00' 00"
Sunlit
Object was in full shadow at epoch
Visualization orbit readout
Latitude
Unknown
Longitude
Unknown
Altitude
Unknown
Speed
Unknown
Apparent Right ascension
Unknown
Apparent Declination
Unknown
Sunlit
N/A
Visualization observer readout
Local Sidereal Time
12:39:51
Azimuth
Unknown
Elevation
Unknown
Doppler factor
Unknown
Orbital elements
Apogee altitude
455.827 km
Perigee altitude
452.881 km
Semi-major axis
6,832.491 km
Eccentricity
0.00022
Inclination
97.3977°
RAAN
64.1573°
Arg. of periapsis
242.1368°
True anomaly
117.98762°
Mean anomaly
117.9658°
Eccentric anomaly
117.97671°
Mean motion
3.84304 °/min
Orbital period
93.68 mins
BSTAR
0.00080177
Loading maneuver chart data...
Computing Atmospheric mass density...
Loading historical data...
Loading historical data...
Loading historical data...
Loading historical data...
Loading historical data...
Loading historical data...
Loading historical data...

Documentation

Showing up to 5 results
|